Location: Chiroubles
(46.1812°N, 4.6660°E)
Time: 06:47:10
(UTC+00:00)

Transit 4A - Pass Details

Date: 30 November 2020
Orbit: 864 x 980 km, 66.8° (Epoch: 25 January)

Event Time Altitude Azimuth Distance (km) Brightness Sun altitude
Rises 13:25:54 0° 326° (NW) 3,692 10.8 17.2°
Reaches altitude 10° 13:29:32 10° 346° (NNW) 2,737 10.0 16.9°
Maximum altitude 13:33:37 17° 26° (NNE) 2,237 9.4 16.5°
Drops below altitude 10° 13:37:39 10° 66° (ENE) 2,703 9.9 16.2°
Sets 13:41:12 0° 86° (E) 3,627 10.6 15.9°
